DW9572 Weather Reports


time (UTC)temp
F
wind
direction
speed
knots
gust
knots
rain 1hr
in
rain 24hr
in
rain mn
in
humidity
%
barometer
mb
20260904141531 52 1 0.0 0.9 0.00 0.00 0.00 74 1012.3
20260904140036 51 3 2.6 5.2 0.00 0.00 0.00 77 1012.0
20260904134557 50 349 5.2 6.1 0.00 0.00 0.00 77 1011.7
20260904133052 51 347 5.2 6.1 0.00 0.00 0.00 77 1011.7
20260904131531 51 352 3.5 3.5 0.00 0.00 0.00 77 1011.6
20260904130030 49 338 0.0 1.7 0.00 0.00 0.00 76 1011.4
20260904124510 49 311 0.9 1.7 0.00 0.00 0.00 76 1011.1
20260904123009 49 308 0.9 4.3 0.00 0.00 0.00 77 1011.1
20260904121549 49 293 3.5 4.3 0.00 0.00 0.00 77 1011.0
20260904120053 50 284 0.9 2.6 0.00 0.00 0.00 73 1010.8
20260904114536 50 263 0.9 2.6 0.00 0.00 0.00 73 1010.7
20260904113031 50 330 0.9 1.7 0.00 0.00 0.00 74 1010.6
20260904111505 51 327 0.0 0.9 0.00 0.00 0.00 72 1010.4
20260904110005 52 328 0.9 1.7 0.00 0.00 0.00 70 1010.3
20260904104547 53 324 1.7 2.6 0.00 0.00 0.00 68 1010.3
20260904103046 52 316 0.9 3.5 0.00 0.00 0.00 69 1010.2
20260904101529 52 305 1.7 2.6 0.00 0.00 0.00 72 1009.9
20260904100029 52 35 0.0 1.7 0.00 0.00 0.00 74 1009.7
20260904094508 53 79 4.3 6.1 0.00 0.00 0.00 61 1009.5
20260904093003 56 328 0.0 4.3 0.00 0.00 0.00 56 1009.2
20260904091546 57 320 1.7 4.3 0.00 0.00 0.00 57 1009.1
20260904090046 57 315 1.7 4.3 0.00 0.00 0.00 59 1009.1
20260904084527 57 287 2.6 4.3 0.00 0.00 0.00 58 1009.3
20260904083029 57 304 3.5 4.3 0.00 0.00 0.00 57 1009.2
20260904081508 58 271 4.3 5.2 0.00 0.00 0.00 59 1009.1
20260904080008 57 281 2.6 4.3 0.00 0.00 0.00 61 1009.2
20260904074558 58 242 2.6 4.3 0.00 0.00 0.00 57 1009.2
20260904073104 58 297 1.7 6.1 0.00 0.00 0.00 58 1009.1
20260904071556 59 264 5.2 7.8 0.00 0.00 0.00 58 1009.1
20260904070056 59 277 3.5 6.1 0.00 0.00 0.00 58 1009.1
20260904064603 60 260 5.2 7.8 0.00 0.00 0.00 56 1009.0
20260904063108 60 281 3.5 6.1 0.00 0.00 0.00 56 1009.0
20260904061553 60 304 2.6 6.1 0.00 0.00 0.00 56 1008.7
20260904060109 60 267 4.3 6.1 0.00 0.00 0.00 55 1008.7
20260904054542 60 277 5.2 7.0 0.00 0.00 0.00 55 1008.7
20260904053036 61 266 4.3 7.8 0.00 0.00 0.00 52 1008.7
20260904051518 61 276 4.3 7.0 0.00 0.00 0.00 53 1008.7
20260904050030 61 274 1.7 5.2 0.00 0.00 0.00 53 1008.7
20260904044601 61 280 4.3 6.1 0.00 0.00 0.00 52 1008.5
20260904043106 62 284 1.7 3.5 0.00 0.00 0.00 51 1008.2
20260904043001 62 278 1.7 3.5 0.00 0.00 0.00 51 1008.2
20260904041541 62 276 2.6 4.3 0.00 0.00 0.00 50 1008.0
20260904040042 63 224 3.5 4.3 0.00 0.00 0.00 49 1007.9
20260904034522 63 291 0.9 2.6 0.00 0.00 0.00 49 1008.0
20260904033021 63 250 0.9 4.3 0.00 0.00 0.00 49 1008.0
20260904031504 63 307 0.9 2.6 0.00 0.00 0.00 51 1007.8
20260904030003 65 211 2.6 5.2 0.00 0.00 0.00 46 1007.5
20260904024609 65 263 4.3 5.2 0.00 0.00 0.00 47 1007.2
20260904023046 66 269 0.0 0.0 0.00 0.00 0.00 46 1007.1
20260904021552 66 143 0.0 0.0 0.00 0.00 0.00 45 1007.2
20260904020026 67 132 0.0 1.7 0.00 0.00 0.00 45 1007.4
20260904014525 68 224 1.7 3.5 0.00 0.00 0.00 41 1007.4
20260904013007 68 190 1.7 4.3 0.00 0.00 0.00 40 1007.4
20260904011505 68 191 4.3 7.8 0.00 0.00 0.00 39 1007.4
20260904010049 69 197 7.0 10.4 0.00 0.00 0.00 38 1007.5
20260904004547 69 203 7.8 13.0 0.00 0.00 0.00 38 1007.5
20260904003030 69 200 10.4 16.5 0.00 0.00 0.00 36 1007.6
20260904001547 70 197 11.3 16.5 0.00 0.00 0.00 35 1007.6
20260904000010 70 204 12.2 15.6 0.00 0.00 0.00 34 1007.6
20260903234509 71 208 9.6 14.8 0.00 0.00 0.00 34 1007.6
20260903233051 71 222 11.3 16.5 0.00 0.00 0.00 34 1007.6
20260903231601 71 198 8.7 13.9 0.00 0.00 0.00 35 1007.7
20260903230031 72 250 9.6 16.5 0.00 0.00 0.00 34 1007.8
20260903224529 72 203 13.0 20.0 0.00 0.00 0.00 34 1008.1
20260903223005 71 236 12.2 20.0 0.00 0.00 0.00 35 1008.2
20260903221503 71 211 7.0 19.1 0.00 0.00 0.00 37 1008.2
20260903220042 71 204 6.1 14.8 0.00 0.00 0.00 38 1008.2
20260903214541 70 166 2.6 13.0 0.00 0.00 0.00 40 1008.5
20260903213035 70 219 11.3 17.4 0.00 0.00 0.00 38 1008.7
20260903211523 70 215 9.6 17.4 0.00 0.00 0.00 37 1008.8
20260903210020 69 215 9.6 17.4 0.00 0.00 0.00 39 1008.9
20260903204517 68 145 7.0 15.6 0.00 0.00 0.00 39 1009.1
20260903203014 68 153 5.2 13.9 0.00 0.00 0.00 44 1009.3
20260903201613 67 210 7.8 16.5 0.00 0.00 0.00 45 1009.5
20260903200015 67 188 7.0 16.5 0.00 0.00 0.00 44 1009.7
20260903194514 67 221 10.4 16.5 0.00 0.00 0.00 47 1009.7
20260903193017 67 266 8.7 14.8 0.00 0.00 0.00 50 1009.8
20260903191611 66 204 9.6 17.4 0.00 0.00 0.00 53 1009.9
20260903190012 66 197 10.4 16.5 0.00 0.00 0.00 54 1010.1
20260903184508 66 191 13.0 19.1 0.00 0.00 0.00 51 1010.1
20260903183017 66 203 10.4 18.2 0.00 0.00 0.00 52 1010.1
20260903181604 65 245 13.0 15.6 0.00 0.00 0.00 51 1010.1
20260903180043 65 229 13.0 18.2 0.00 0.00 0.00 51 1010.1
20260903174540 63 244 9.6 13.0 0.00 0.00 0.00 57 1010.2
20260903173019 62 207 7.8 14.8 0.00 0.00 0.00 65 1010.2
20260903171519 62 245 10.4 14.8 0.00 0.00 0.00 62 1010.3
20260903170100 61 194 7.0 12.2 0.00 0.00 0.00 66 1010.2
20260903164558 60 252 7.8 13.9 0.00 0.00 0.00 65 1010.3
20260903163056 60 250 12.2 15.6 0.00 0.00 0.00 63 1010.3
20260903161538 60 219 11.3 16.5 0.00 0.00 0.00 65 1010.2
20260903160019 59 252 9.6 12.2 0.00 0.00 0.00 65 1010.1
20260903154516 59 214 6.1 9.6 0.00 0.00 0.00 68 1010.3
20260903153054 58 204 7.0 9.6 0.00 0.00 0.00 69 1010.5
20260903151553 57 207 5.2 8.7 0.00 0.00 0.00 69 1010.5
20260903150035 58 225 4.3 6.1 0.00 0.00 0.00 69 1010.5
20260903144530 56 177 2.6 6.1 0.00 0.00 0.00 71 1010.4
20260903143014 55 187 2.6 4.3 0.00 0.00 0.00 73 1010.3